EHI
44 48 55 60 63 65 70 75 77 76 75 74 70 61 51 39 28 19 11 10 16 22 24 19 11 7 4 1 0 0 0 0 0 0 0 0 0 0 0 0 0 0 1
39 41 46 51 54 56 59 64 68 68 68 67 65 61 52 38 26 16 11 11 17 23 23 19 15 10 6 2 1 1 1 1 0 0 0 0 0 0 0 0 0 0 1
28 30 34 37 38 39 42 45 50 54 55 56 58 57 48 33 21 14 10 10 15 18 18 17 17 14 9 5 3 2 3 3 2 1 0 0 0 0 0 0 0 0 1
19 22 25 26 26 26 27 31 36 41 42 44 48 48 39 26 18 15 11 9 10 12 12 12 13 12 10 8 6 4 4 4 4 2 1 0 0 0 0 0 0 0 0
14 16 18 19 19 18 19 22 27 31 32 33 35 34 27 19 16 15 13 9 8 8 8 8 8 7 8 7 5 4 3 4 4 3 2 1 0 0 0 0 0 0 0
11 12 13 13 13 12 14 17 19 21 22 21 20 18 14 12 12 13 11 8 6 5 5 5 4 4 4 4 3 2 2 2 2 2 2 1 0 0 0 0 0 0 0
9 9 9 9 8 9 11 12 13 13 13 12 10 8 7 7 8 8 7 4 2 2 2 2 1 1 1 1 1 1 1 1 1 1 1 0 0 0 0 0 0 0 0
7 7 7 7 6 7 7 8 8 8 7 7 6 4 4 4 5 4 2 1 0 0 0 0 0 0 0 0 0 0 0 0 0 0 0 0 0 0 0 0 0 0 0
6 6 6 6 5 5 4 4 4 4 4 4 3 2 1 1 2 1 0 0 0 0 0 0 0 0 0 0 0 0 0 0 0 0 0 0 0 0 0 0 0 0 0
4 4 3 3 3 2 1 1 1 1 1 1 1 1 0 0 0 0 0 0 0 0 0 0 0 0 0 0 0 0 0 0 0 0 0 0 0 0 0 0 0 0 0
2 2 1 1 1 0 0 0 0 0 0 0 0 0 0 0 0 0 0 0 0 0 0 0 0 0 0 0 0 0 0 0 0 0 0 0 0 0 0 0 0 0 0
1 1 0 0 0 0 0 0 0 0 0 0 0 0 0 0 0 0 0 0 0 0 0 0 0 0 0 0 0 0 0 0 0 0 0 0 0 0 0 0 0 0 0
0 0 0 0 0 0 0 0 0 0 0 0 0 0 0 0 0 0 0 0 0 0 0 0 0 0 0 0 0 0 0 0 0 0 0 0 0 0 0 0 0 0 0
0 0 0 0 0 0 0 0 0 0 0 0 0 0 0 0 0 0 0 0 0 0 0 0 0 0 0 0 0 0 0 0 0 0 0 0 0 0 0 0 0 0 0
0 0 0 0 0 0 0 0 0 0 0 0 0 0 0 0 0 0 0 0 0 0 0 0 0 0 0 0 0 0 0 0 0 0 0 0 0 0 0 0 0 0 0
0 0 0 0 0 0 0 0 0 0 0 0 0 0 0 0 0 0 0 0 0 0 0 0 0 0 0 0 0 0 0 0 0 0 0 0 0 0 0 0 0 0 0
0 0 0 0 0 0 0 0 0 0 0 0 0 0 0 0 0 0 0 0 0 0 0 0 0 0 0 0 0 0 0 0 0 0 0 0 0 0 0 0 0 0 0
0 0 0 0 0 0 0 0 0 0 0 0 0 0 0 0 0 0 0 0 0 0 0 0 0 0 0 0 0 0 0 0 0 0 0 0 0 0 0 0 0 0 0
0 0 0 0 0 0 0 0 0 0 0 0 0 0 0 0 0 0 0 0 0 0 0 0 0 0 0 0 0 0 0 0 0 0 0 0 0 0 0 0 0 0 0
0 0 0 0 0 0 0 0 0 0 0 0 0 0 0 0 0 0 0 0 0 0 0 0 0 0 0 0 0 0 0 0 0 0 0 0 0 0 0 0 0 0 0
0 0 0 0 0 0 0 0 0 0 0 0 0 0 0 0 0 0 0 0 0 0 0 0 0 0 0 0 0 0 0 0 0 0 0 0 0 0 0 0 0 0 0
0 0 0 0 0 0 0 0 0 0 0 0 0 0 0 0 0 0 0 0 0 0 0 0 0 0 0 0 0 0 0 0 0 0 0 0 0 0 0 0 0 0 0
0 0 0 0 0 0 0 0 0 0 0 0 0 0 0 0 0 0 0 0 0 0 0 0 0 0 0 0 0 0 0 0 0 0 0 0 0 0 0 0 0 0 0
0 0 0 0 0 0 0 0 0 0 0 0 0 0 0 0 0 0 0 0 0 0 0 0 0 0 0 0 0 0 0 0 0 0 0 0 0 0 0 0 0 0 0
0 0 0 0 0 0 0 0 0 0 0 0 0 0 0 0 0 0 0 0 0 0 0 0 0 0 0 0 0 0 0 0 0 0 0 0 0 0 0 0 0 0 0
0 0 0 0 0 0 0 0 0 0 0 0 0 0 0 0 0 0 0 0 0 0 0 0 0 0 0 0 0 0 0 0 0 0 0 0 0 0 0 0 0 0 0
Wind_Speed
7 7 7 6 6 6 5 6 10 10 9 7 6 5 4 4 3 3 4 6 5 5 4 3 2 2 2 2 2 1 1 1 1 1 1 1 0 0 1 2 2 3 4
12 12 12 10 8 8 5 3 4 7 7 6 6 4 4 3 3 3 3 4 3 3 3 3 2 2 1 1 1 1 1 0 1 2 1 1 1 1 0 0 1 2 1
11 11 12 12 10 10 7 4 3 4 4 3 3 4 3 3 2 3 3 4 5 5 4 5 3 2 2 1 1 1 3 2 2 2 3 2 3 1 0 0 0 0 0
11 10 11 12 11 9 9 7 6 6 5 5 5 5 4 3 3 3 4 6 7 7 6 5 5 4 3 2 1 2 0 1 2 1 1 2 2 2 1 0 1 1 1
12 12 12 12 11 10 10 8 7 8 7 6 6 6 5 4 5 6 7 7 7 8 8 7 7 6 5 5 5 4 3 1 1 0 0 0 0 1 2 1 0 1 1
13 13 12 12 12 12 11 9 9 9 9 9 8 8 8 7 7 7 7 6 6 7 9 9 8 7 6 6 6 6 7 5 5 4 3 2 1 0 1 1 1 1 1
12 13 14 14 13 12 11 10 10 10 10 11 11 10 10 9 9 7 8 8 7 7 9 8 9 8 8 8 7 8 8 8 8 7 5 5 4 2 1 1 1 2 2
13 14 14 13 12 13 12 12 12 11 11 12 11 11 11 8 8 10 9 10 8 8 8 10 10 10 10 9 8 8 8 8 9 9 7 6 5 5 4 2 1 2 3
13 13 13 13 13 13 13 12 12 12 13 13 13 13 13 12 12 12 12 10 8 8 10 11 11 10 10 9 8 8 8 8 8 7 7 6 5 5 5 4 3 2 2
12 12 12 12 11 11 12 12 13 13 13 12 12 12 13 13 12 12 13 11 10 10 10 11 10 10 9 9 8 7 7 8 6 5 7 6 4 5 5 5 4 4 2
11 11 11 10 11 12 12 12 12 13 13 12 12 13 13 12 12 12 11 10 10 10 10 9 9 9 9 8 7 7 6 7 6 6 6 6 5 5 4 4 4 4 3
10 10 10 10 11 12 11 12 11 12 12 11 12 13 12 12 12 11 10 9 10 9 9 9 9 9 8 7 7 6 6 6 6 5 5 5 4 5 4 4 4 3 2
11 10 10 10 10 10 11 11 11 11 10 10 11 11 11 10 10 9 8 8 8 8 8 8 9 8 7 7 6 6 5 5 4 4 3 3 3 4 3 3 3 2 3
11 11 10 9 9 9 9 10 9 9 9 10 10 10 9 8 8 7 7 7 7 7 7 7 7 7 7 7 6 6 6 5 5 4 3 2 2 2 3 3 3 3 3
11 11 10 9 8 8 8 8 8 7 8 8 9 8 7 7 7 6 6 6 6 6 5 6 6 5 5 6 6 5 5 5 5 5 4 2 2 2 2 2 2 2 2
11 11 10 9 8 8 7 7 7 6 6 8 7 6 6 6 5 5 4 5 4 4 5 5 5 5 5 8 10 6 4 4 4 4 4 3 4 6 6 7 6 3 2
11 10 9 8 8 7 7 7 6 6 6 6 6 5 5 4 4 4 4 3 3 3 3 3 4 4 5 9 10 10 5 4 4 3 3 2 3 4 4 7 8 8 7
9 9 8 7 7 6 6 6 6 6 6 5 4 4 4 4 3 3 3 2 1 1 1 1 2 2 4 8 10 9 6 5 5 4 2 1 2 3 4 4 5 5 5
8 7 7 7 6 6 6 6 5 5 5 5 4 3 4 4 3 2 1 0 1 1 1 1 2 2 3 6 8 8 5 5 6 5 3 2 1 4 5 4 5 6 6
8 7 7 7 6 5 6 7 6 6 5 4 4 3 3 3 2 1 0 0 1 1 1 1 1 2 1 5 7 7 3 4 4 5 4 4 4 6 6 3 3 6 6
9 8 8 6 5 5 6 7 6 5 4 4 4 3 2 2 2 1 1 1 2 2 2 2 1 1 2 5 8 8 3 2 3 4 4 5 10 11 10 5 4 7 7
8 8 7 6 4 5 6 6 4 3 4 4 3 2 1 1 2 3 3 4 4 4 3 3 2 2 3 5 7 10 8 5 2 3 4 6 12 12 9 5 5 8 6
7 6 7 6 4 4 6 5 3 3 4 3 2 2 1 2 2 3 4 4 4 3 3 2 2 2 2 4 8 8 9 9 4 4 9 10 10 8 5 7 8 5 2
7 6 7 6 4 4 4 4 3 3 4 3 2 1 2 2 3 3 3 3 3 3 3 3 2 1 2 3 4 5 5 7 6 6 8 10 8 6 6 6 5 3 2
5 6 6 5 4 4 4 3 3 4 3 2 2 1 2 2 3 3 3 3 1 2 3 1 1 1 2 4 6 5 4 5 4 5 4 4 4 5 5 5 5 4 5
5 6 5 5 5 4 4 3 3 4 4 2 1 1 2 2 3 3 3 4 2 2 3 2 2 2 4 7 8 9 9 8 5 3 3 3 4 4 4 4 5 4 4
Wind_Direction
67 67 75 86 99 97 116 173 164 162 159 156 156 159 166 167 157 160 165 178 179 170 159 152 146 139 156 173 171 144 150 204 160 93 348 338 19 151 204 204 184 199 205
57 58 62 60 67 82 82 91 161 157 160 166 164 158 149 139 130 113 101 103 109 114 121 117 118 117 119 113 133 153 165 180 161 159 168 290 313 292 264 219 186 189 189
67 63 65 58 51 58 55 56 74 103 109 126 122 108 93 83 80 79 80 72 89 90 92 101 100 98 125 155 190 168 172 196 205 179 175 192 226 240 309 295 66 130 142
66 68 69 66 55 47 48 39 43 61 71 89 110 119 125 126 109 98 85 68 62 66 67 71 72 64 58 67 62 72 98 178 203 203 205 187 167 181 210 298 5 35 34
63 63 64 68 64 52 49 42 44 48 58 71 92 103 99 107 102 96 89 75 61 57 59 64 65 62 54 49 47 49 52 62 115 165 194 175 119 173 185 204 168 43 15
66 62 58 58 58 54 51 42 46 48 53 63 65 82 92 97 101 100 96 80 66 56 53 61 64 64 62 57 53 54 56 56 60 55 49 50 62 50 173 185 149 119 24
65 61 56 54 55 56 55 58 56 55 55 62 61 67 77 82 85 87 83 80 70 61 53 59 62 61 62 62 60 61 57 56 63 59 56 50 42 21 25 88 105 88 45
66 64 61 59 58 58 56 59 64 61 62 65 65 64 68 73 72 73 77 75 71 67 66 66 64 62 62 64 63 63 60 58 61 59 55 54 41 37 36 42 78 91 56
69 68 64 60 58 58 56 60 67 67 65 68 70 67 68 73 76 75 74 74 73 73 69 69 67 63 61 61 63 65 61 59 56 55 54 53 41 39 37 38 39 80 91
75 71 69 66 63 62 62 61 64 67 66 68 72 75 72 73 76 78 78 78 75 72 71 67 66 64 61 58 59 60 56 61 53 52 53 47 36 37 34 35 37 44 81
86 79 75 72 71 68 65 64 64 67 67 67 71 75 74 74 76 77 76 76 74 71 71 69 67 63 58 55 57 57 53 57 51 46 50 44 36 34 27 29 35 36 49
89 85 81 77 73 71 69 67 67 68 69 71 73 74 74 75 75 75 73 73 74 70 69 66 64 60 54 49 50 51 46 48 46 41 42 36 40 34 27 31 34 31 40
97 90 82 79 78 77 76 74 72 74 74 76 77 76 74 75 75 74 73 73 73 70 67 65 62 58 51 46 42 45 41 38 37 34 34 24 38 32 24 30 24 13 20
103 97 89 83 80 80 81 82 79 79 82 80 80 79 76 77 77 76 73 71 72 71 65 63 62 59 52 45 38 38 37 27 20 18 22 27 50 49 26 24 11 8 12
110 107 104 98 93 90 88 87 87 85 87 87 85 82 81 80 79 75 71 69 69 70 68 67 60 53 50 38 36 29 30 23 11 3 2 5 37 41 15 2 340 353 351
120 117 113 109 105 103 102 98 96 93 94 93 90 88 86 84 80 78 75 71 68 66 69 69 65 52 43 32 33 32 25 14 8 356 352 0 32 22 13 358 348 336 301
126 123 120 119 118 117 116 113 112 105 99 98 98 97 95 90 86 90 85 80 79 79 79 79 73 54 27 28 25 26 31 14 0 351 350 2 28 27 6 352 353 344 329
126 123 122 119 118 119 118 116 110 108 106 104 101 100 98 94 90 87 85 85 96 105 113 116 100 63 26 27 26 25 30 23 13 10 20 31 352 358 358 345 340 327 318
124 123 123 121 120 121 122 114 109 110 111 111 110 108 105 101 96 90 79 74 100 114 169 160 136 87 15 20 27 31 21 17 5 2 10 19 346 328 348 349 334 324 314
117 118 116 112 113 118 117 112 112 111 116 121 119 115 112 112 112 108 75 9 106 124 126 114 129 123 26 10 21 27 24 10 352 343 340 330 317 314 321 310 307 308 303
119 118 116 115 118 119 112 112 118 130 141 131 122 117 115 124 117 69 37 47 64 72 74 80 66 64 34 14 16 18 21 348 333 327 320 312 318 317 312 296 252 259 277
120 120 118 114 110 113 113 115 130 147 131 122 123 123 116 100 88 66 48 51 64 71 63 64 49 23 16 22 13 14 14 7 325 308 305 306 317 321 322 313 287 290 296
124 121 121 116 112 119 122 128 155 143 125 120 123 120 93 60 74 78 71 60 61 72 63 69 66 23 3 359 5 2 357 357 341 305 309 318 331 342 344 345 346 344 340
126 124 124 124 129 139 141 153 160 138 128 132 148 143 108 85 75 75 84 84 74 75 70 71 67 14 344 340 341 337 335 341 342 334 329 338 353 6 357 353 357 352 335
129 131 135 142 154 155 153 167 162 137 131 136 145 140 126 119 100 80 73 96 96 143 132 129 133 79 333 306 314 319 321 322 317 327 343 359 357 2 360 353 348 345 351
137 139 148 155 165 165 172 182 171 153 147 150 170 179 157 137 128 116 72 48 90 88 105 150 178 252 267 300 320 330 333 333 335 10 6 352 353 354 352 348 343 344 345